| time (UTC) | temp C | wind direction | speed KPH | gust KPH | rain 1hr cm | rain 24hr cm | rain mn cm | humidity % | barometer mb |
| 20260902062018 | 13 | 0.0 | 0.0 | 0.00 | 0.51 | 0.00 | 91 | 1020.2 | |
| 20260902061015 | 13 | 180 | 0.0 | 3.2 | 0.00 | 0.51 | 0.00 | 92 | 1020.2 |
| 20260902060113 | 12 | 0.0 | 0.0 | 0.00 | 0.51 | 0.00 | 93 | 1020.2 | |
| 20260902055110 | 12 | 0.0 | 0.0 | 0.00 | 0.51 | 0.00 | 93 | 1020.3 | |
| 20260902054108 | 12 | 0.0 | 0.0 | 0.00 | 0.51 | 0.00 | 93 | 1020.2 | |
| 20260902053105 | 12 | 0.0 | 0.0 | 0.00 | 0.51 | 0.00 | 93 | 1020.2 | |
| 20260902052103 | 12 | 0.0 | 0.0 | 0.00 | 0.51 | 0.00 | 93 | 1020.3 | |
| 20260902051100 | 12 | 0.0 | 0.0 | 0.00 | 0.53 | 0.00 | 93 | 1020.3 | |
| 20260902050058 | 12 | 0.0 | 0.0 | 0.00 | 0.53 | 0.00 | 94 | 1020.1 | |
| 20260902045055 | 12 | 0.0 | 0.0 | 0.00 | 0.53 | 0.00 | 94 | 1020.1 | |
| 20260902044052 | 11 | 0.0 | 0.0 | 0.00 | 0.53 | 0.00 | 94 | 1020.1 | |
| 20260902043050 | 11 | 0.0 | 0.0 | 0.00 | 0.53 | 0.00 | 93 | 1020.1 | |
| 20260902042047 | 11 | 0.0 | 0.0 | 0.00 | 0.53 | 0.00 | 93 | 1020.2 | |
| 20260902041045 | 11 | 0.0 | 0.0 | 0.00 | 0.53 | 0.00 | 93 | 1020.2 | |
| 20260902040042 | 11 | 0.0 | 0.0 | 0.00 | 0.53 | 0.00 | 93 | 1020.1 | |
| 20260902035039 | 11 | 0.0 | 0.0 | 0.00 | 0.53 | 0.00 | 93 | 1020.1 | |
| 20260902034036 | 12 | 0.0 | 0.0 | 0.00 | 0.53 | 0.00 | 93 | 1020.2 | |
| 20260902033034 | 11 | 0.0 | 0.0 | 0.00 | 0.53 | 0.00 | 93 | 1020.2 | |
| 20260902032031 | 11 | 0.0 | 0.0 | 0.00 | 0.53 | 0.00 | 93 | 1020.4 | |
| 20260902031029 | 12 | 0.0 | 0.0 | 0.00 | 0.53 | 0.00 | 93 | 1020.4 | |
| 20260902030026 | 12 | 0.0 | 0.0 | 0.00 | 0.56 | 0.00 | 93 | 1020.5 | |
| 20260902025024 | 12 | 0.0 | 0.0 | 0.00 | 0.64 | 0.00 | 93 | 1020.5 | |
| 20260902024021 | 12 | 0.0 | 0.0 | 0.00 | 0.64 | 0.00 | 93 | 1020.4 | |
| 20260902023019 | 12 | 0.0 | 0.0 | 0.00 | 0.64 | 0.00 | 93 | 1020.5 | |
| 20260902022016 | 12 | 0.0 | 0.0 | 0.00 | 0.64 | 0.00 | 93 | 1020.4 | |
| 20260902021114 | 12 | 0.0 | 0.0 | 0.00 | 0.64 | 0.00 | 93 | 1020.4 | |
| 20260902020111 | 12 | 0.0 | 0.0 | 0.00 | 0.64 | 0.00 | 93 | 1020.4 | |
| 20260902015109 | 12 | 0.0 | 0.0 | 0.00 | 0.64 | 0.00 | 93 | 1020.5 | |
| 20260902014106 | 12 | 0.0 | 0.0 | 0.00 | 0.64 | 0.00 | 93 | 1020.4 | |
| 20260902013104 | 12 | 0.0 | 0.0 | 0.00 | 0.64 | 0.00 | 93 | 1020.3 | |
| 20260902012101 | 12 | 0.0 | 0.0 | 0.00 | 0.64 | 0.00 | 93 | 1020.4 | |
| 20260902011058 | 12 | 0.0 | 0.0 | 0.00 | 0.69 | 0.00 | 93 | 1020.3 | |
| 20260902010056 | 12 | 0.0 | 0.0 | 0.00 | 0.69 | 0.00 | 93 | 1020.1 | |
| 20260902005053 | 12 | 0.0 | 0.0 | 0.00 | 0.71 | 0.00 | 93 | 1020.3 | |
| 20260902004051 | 12 | 0.0 | 0.0 | 0.00 | 0.71 | 0.00 | 93 | 1020.2 | |
| 20260902003048 | 12 | 0.0 | 0.0 | 0.00 | 0.79 | 0.00 | 93 | 1020.2 | |
| 20260902002045 | 12 | 0.0 | 0.0 | 0.00 | 0.79 | 0.00 | 93 | 1020.2 | |
| 20260902001043 | 12 | 0.0 | 0.0 | 0.00 | 0.79 | 0.00 | 93 | 1020.3 | |
| 20260902000040 | 12 | 0.0 | 0.0 | 0.00 | 0.79 | 0.00 | 93 | 1020.3 | |
| 20260901235038 | 12 | 0.0 | 0.0 | 0.00 | 0.81 | 0.00 | 93 | 1020.3 | |
| 20260901234035 | 12 | 0.0 | 0.0 | 0.00 | 0.81 | 0.00 | 93 | 1020.5 | |
| 20260901233033 | 12 | 0.0 | 0.0 | 0.00 | 0.81 | 0.00 | 93 | 1020.5 | |
| 20260901232030 | 12 | 0.0 | 0.0 | 0.00 | 0.81 | 0.00 | 93 | 1020.6 | |
| 20260901231027 | 13 | 0.0 | 0.0 | 0.00 | 0.81 | 0.00 | 93 | 1020.6 | |
| 20260901230025 | 13 | 0.0 | 0.0 | 0.00 | 0.81 | 0.00 | 93 | 1020.8 | |
| 20260901225022 | 13 | 0.0 | 0.0 | 0.00 | 0.81 | 0.00 | 93 | 1020.6 | |
| 20260901224020 | 13 | 0.0 | 0.0 | 0.00 | 0.81 | 0.00 | 93 | 1020.8 | |
| 20260901223017 | 13 | 0.0 | 0.0 | 0.00 | 0.81 | 0.00 | 93 | 1020.9 | |
| 20260901222015 | 13 | 0.0 | 0.0 | 0.00 | 0.81 | 0.00 | 93 | 1020.9 | |
| 20260901221112 | 13 | 0.0 | 0.0 | 0.00 | 0.81 | 0.00 | 93 | 1020.9 | |
| 20260901220110 | 13 | 0.0 | 0.0 | 0.00 | 0.81 | 0.00 | 92 | 1020.7 | |
| 20260901215107 | 13 | 0.0 | 0.0 | 0.00 | 0.81 | 0.81 | 92 | 1020.7 | |
| 20260901214104 | 13 | 0.0 | 0.0 | 0.00 | 0.81 | 0.81 | 92 | 1020.6 | |
| 20260901213102 | 13 | 0.0 | 0.0 | 0.00 | 0.81 | 0.81 | 92 | 1020.5 | |
| 20260901212059 | 13 | 0.0 | 0.0 | 0.00 | 0.81 | 0.81 | 92 | 1020.5 | |
| 20260901211057 | 14 | 0.0 | 0.0 | 0.00 | 0.81 | 0.81 | 92 | 1020.5 | |
| 20260901210054 | 14 | 0.0 | 0.0 | 0.00 | 0.81 | 0.81 | 92 | 1020.4 | |
| 20260901205052 | 15 | 0.0 | 0.0 | 0.00 | 0.81 | 0.81 | 92 | 1020.4 | |
| 20260901204049 | 15 | 0.0 | 0.0 | 0.00 | 0.81 | 0.81 | 91 | 1020.4 | |
| 20260901203046 | 15 | 0.0 | 0.0 | 0.00 | 0.81 | 0.81 | 91 | 1020.5 | |
| 20260901202044 | 15 | 0.0 | 0.0 | 0.05 | 0.81 | 0.81 | 91 | 1020.5 | |
| 20260901201041 | 15 | 0.0 | 0.0 | 0.10 | 0.81 | 0.81 | 90 | 1020.5 | |
| 20260901200039 | 15 | 0.0 | 0.0 | 0.10 | 0.81 | 0.81 | 90 | 1020.5 | |
| 20260901195036 | 15 | 0.0 | 0.0 | 0.10 | 0.81 | 0.81 | 90 | 1020.4 | |
| 20260901194034 | 15 | 0.0 | 0.0 | 0.10 | 0.81 | 0.81 | 89 | 1020.4 | |
| 20260901193031 | 16 | 0.0 | 3.2 | 0.10 | 0.81 | 0.81 | 87 | 1020.5 | |
| 20260901192028 | 16 | 0.0 | 0.0 | 0.03 | 0.76 | 0.76 | 83 | 1020.4 | |
| 20260901191026 | 16 | 0.0 | 0.0 | 0.00 | 0.71 | 0.71 | 82 | 1020.2 | |
| 20260901190023 | 16 | 0.0 | 0.0 | 0.00 | 0.71 | 0.71 | 80 | 1020.2 | |
| 20260901185021 | 16 | 0.0 | 0.0 | 0.00 | 0.71 | 0.71 | 79 | 1020.0 | |
| 20260901184018 | 16 | 0.0 | 0.0 | 0.00 | 0.71 | 0.71 | 78 | 1019.9 | |
| 20260901183016 | 16 | 0.0 | 0.0 | 0.00 | 0.71 | 0.71 | 79 | 1019.8 | |
| 20260901182113 | 16 | 0.0 | 0.0 | 0.00 | 0.79 | 0.71 | 78 | 1019.7 | |
| 20260901181111 | 16 | 0.0 | 3.2 | 0.00 | 0.79 | 0.71 | 77 | 1019.6 | |
| 20260901180108 | 16 | 0.0 | 0.0 | 0.00 | 0.79 | 0.71 | 76 | 1019.5 | |
| 20260901175106 | 17 | 0.0 | 3.2 | 0.00 | 0.79 | 0.71 | 76 | 1019.5 | |
| 20260901174103 | 17 | 42 | 0.0 | 6.4 | 0.00 | 0.79 | 0.71 | 74 | 1019.5 |
| 20260901173101 | 17 | 0.0 | 3.2 | 0.00 | 0.79 | 0.71 | 72 | 1019.5 | |
| 20260901172058 | 17 | 0 | 0.0 | 3.2 | 0.00 | 0.79 | 0.71 | 71 | 1019.4 |
| 20260901171055 | 17 | 0.0 | 3.2 | 0.00 | 0.79 | 0.71 | 70 | 1019.2 | |
| 20260901170053 | 17 | 90 | 0.0 | 3.2 | 0.00 | 0.79 | 0.71 | 71 | 1019.1 |
| 20260901165050 | 18 | 0.0 | 3.2 | 0.00 | 0.79 | 0.71 | 71 | 1019.2 | |
| 20260901164048 | 18 | 0.0 | 3.2 | 0.00 | 0.79 | 0.71 | 71 | 1019.3 | |
| 20260901163045 | 18 | 0.0 | 3.2 | 0.00 | 0.79 | 0.71 | 70 | 1019.2 | |
| 20260901162043 | 18 | 62 | 1.6 | 6.4 | 0.00 | 0.79 | 0.71 | 70 | 1019.1 |
| 20260901161040 | 18 | 0.0 | 3.2 | 0.00 | 0.79 | 0.71 | 71 | 1019.1 | |
| 20260901160038 | 18 | 52 | 0.0 | 6.4 | 0.00 | 0.79 | 0.71 | 70 | 1019.2 |
| 20260901155035 | 18 | 30 | 1.6 | 6.4 | 0.00 | 0.79 | 0.71 | 70 | 1019.1 |
| 20260901154033 | 18 | 68 | 0.0 | 6.4 | 0.00 | 0.79 | 0.71 | 72 | 1019.1 |
| 20260901153030 | 18 | 27 | 0.0 | 3.2 | 0.00 | 0.79 | 0.71 | 72 | 1019.1 |
| 20260901152027 | 18 | 45 | 0.0 | 3.2 | 0.00 | 0.79 | 0.71 | 78 | 1019.0 |
| 20260901151025 | 18 | 68 | 0.0 | 3.2 | 0.00 | 0.84 | 0.71 | 79 | 1019.0 |
| 20260901150022 | 17 | 0.0 | 3.2 | 0.00 | 0.86 | 0.71 | 80 | 1019.0 | |
| 20260901145020 | 17 | 0.0 | 0.0 | 0.00 | 0.86 | 0.71 | 82 | 1018.8 | |
| 20260901144017 | 17 | 0.0 | 0.0 | 0.00 | 0.86 | 0.71 | 85 | 1018.9 | |
| 20260901143015 | 17 | 23 | 0.0 | 3.2 | 0.00 | 0.86 | 0.71 | 87 | 1018.9 |
| 20260901142112 | 17 | 0.0 | 3.2 | 0.00 | 0.86 | 0.71 | 87 | 1019.0 | |
| 20260901141109 | 17 | 0 | 0.0 | 3.2 | 0.00 | 0.86 | 0.71 | 86 | 1019.0 |
| 20260901140107 | 17 | 30 | 0.0 | 3.2 | 0.00 | 0.86 | 0.71 | 82 | 1018.9 |
| 20260901135104 | 18 | 90 | 0.0 | 3.2 | 0.00 | 0.86 | 0.71 | 79 | 1018.8 |
| 20260901134102 | 17 | 0.0 | 3.2 | 0.00 | 0.86 | 0.71 | 82 | 1018.8 | |
| 20260901133059 | 17 | 0.0 | 3.2 | 0.00 | 0.86 | 0.71 | 84 | 1018.8 | |
| 20260901132057 | 17 | 45 | 0.0 | 3.2 | 0.00 | 0.86 | 0.71 | 84 | 1018.8 |
| 20260901131054 | 17 | 23 | 0.0 | 3.2 | 0.00 | 0.86 | 0.71 | 83 | 1018.7 |
| 20260901130052 | 17 | 0.0 | 3.2 | 0.00 | 0.86 | 0.71 | 84 | 1018.7 | |
| 20260901125049 | 17 | 248 | 0.0 | 3.2 | 0.00 | 0.86 | 0.71 | 84 | 1018.7 |
| 20260901124046 | 17 | 83 | 0.0 | 3.2 | 0.00 | 0.86 | 0.71 | 85 | 1018.6 |
| 20260901123044 | 17 | 23 | 0.0 | 3.2 | 0.00 | 0.86 | 0.71 | 86 | 1018.7 |
| 20260901122041 | 17 | 12 | 0.0 | 3.2 | 0.05 | 0.86 | 0.71 | 85 | 1018.6 |
| 20260901121039 | 17 | 135 | 0.0 | 3.2 | 0.10 | 0.86 | 0.71 | 87 | 1018.6 |
| 20260901120036 | 17 | 0 | 0.0 | 3.2 | 0.10 | 0.86 | 0.71 | 87 | 1018.6 |
| 20260901115034 | 17 | 51 | 0.0 | 3.2 | 0.28 | 0.86 | 0.71 | 88 | 1018.5 |
| 20260901114031 | 17 | 0.0 | 0.0 | 0.43 | 0.86 | 0.71 | 90 | 1018.3 | |
| 20260901113029 | 17 | 90 | 0.0 | 3.2 | 0.43 | 0.86 | 0.71 | 90 | 1018.2 |
| 20260901112026 | 17 | 0.0 | 0.0 | 0.36 | 0.81 | 0.66 | 89 | 1018.2 | |
| 20260901111023 | 17 | 0.0 | 0.0 | 0.33 | 0.79 | 0.64 | 89 | 1018.1 | |
| 20260901110021 | 17 | 293 | 0.0 | 3.2 | 0.33 | 0.79 | 0.64 | 87 | 1018.0 |
| 20260901105018 | 18 | 23 | 0.0 | 3.2 | 0.15 | 0.61 | 0.46 | 84 | 1018.0 |
| 20260901104016 | 21 | 7 | 0.0 | 3.2 | 0.00 | 0.46 | 0.30 | 77 | 1017.9 |
| 20260901103113 | 22 | 23 | 0.0 | 3.2 | 0.00 | 0.46 | 0.30 | 70 | 1017.5 |
| 20260901102111 | 21 | 111 | 1.6 | 6.4 | 0.00 | 0.46 | 0.30 | 72 | 1017.5 |
| 20260901101108 | 21 | 0.0 | 3.2 | 0.00 | 0.46 | 0.30 | 71 | 1017.5 | |
| 20260901100106 | 22 | 319 | 0.0 | 3.2 | 0.00 | 0.46 | 0.30 | 69 | 1017.4 |
| 20260901095103 | 21 | 248 | 0.0 | 6.4 | 0.00 | 0.46 | 0.30 | 72 | 1017.4 |
| 20260901094101 | 21 | 62 | 1.6 | 3.2 | 0.00 | 0.46 | 0.30 | 71 | 1017.3 |
| 20260901093058 | 20 | 0.0 | 3.2 | 0.00 | 0.46 | 0.30 | 76 | 1017.3 | |
| 20260901092056 | 20 | 23 | 0.0 | 6.4 | 0.00 | 0.46 | 0.30 | 74 | 1017.2 |
| 20260901091053 | 21 | 101 | 0.0 | 3.2 | 0.00 | 0.46 | 0.30 | 72 | 1017.1 |
| 20260901090050 | 21 | 79 | 0.0 | 6.4 | 0.00 | 0.46 | 0.30 | 71 | 1017.2 |
| 20260901085048 | 21 | 180 | 0.0 | 3.2 | 0.00 | 0.46 | 0.30 | 73 | 1017.3 |
| 20260901084045 | 21 | 98 | 0.0 | 3.2 | 0.00 | 0.46 | 0.30 | 73 | 1017.2 |
| 20260901083043 | 21 | 0.0 | 3.2 | 0.00 | 0.46 | 0.30 | 74 | 1017.1 | |
| 20260901082040 | 20 | 49 | 1.6 | 6.4 | 0.00 | 0.46 | 0.30 | 77 | 1017.0 |
| 20260901081037 | 20 | 60 | 0.0 | 3.2 | 0.00 | 0.46 | 0.30 | 76 | 1016.9 |
| 20260901080035 | 20 | 0.0 | 3.2 | 0.00 | 0.46 | 0.30 | 77 | 1016.8 | |
| 20260901075032 | 19 | 0.0 | 3.2 | 0.00 | 0.46 | 0.30 | 80 | 1017.0 | |
| 20260901074030 | 19 | 113 | 0.0 | 3.2 | 0.00 | 0.46 | 0.30 | 80 | 1016.9 |
| 20260901073027 | 19 | 113 | 0.0 | 3.2 | 0.00 | 0.46 | 0.30 | 81 | 1016.9 |
| 20260901072025 | 19 | 68 | 0.0 | 3.2 | 0.00 | 0.46 | 0.30 | 80 | 1016.7 |
| 20260901071022 | 19 | 0.0 | 3.2 | 0.00 | 0.46 | 0.30 | 81 | 1016.6 | |
| 20260901070020 | 18 | 68 | 0.0 | 3.2 | 0.00 | 0.46 | 0.30 | 82 | 1016.5 |
| 20260901065017 | 18 | 0.0 | 0.0 | 0.00 | 0.46 | 0.30 | 84 | 1016.4 | |
| 20260901064115 | 17 | 68 | 0.0 | 3.2 | 0.00 | 0.46 | 0.30 | 87 | 1016.3 |
| 20260901063112 | 17 | 68 | 0.0 | 3.2 | 0.00 | 0.46 | 0.30 | 89 | 1016.3 |
| 20260901062109 | 16 | 45 | 0.0 | 3.2 | 0.00 | 0.46 | 0.30 | 92 | 1016.1 |